Volver al catálogo

THORAD DELTA 1 DEB

ActivoLEO
NORAD 9699·DEBRIS·🇺🇸 United States

Lanzado Nov 15, 1974 desde Vandenberg Space Force Base

Loading…

Próximos Pases (próximas 24 horas)

TLE

ActualizadoSource: Space-Track

Época: Sep 14, 2026, 18:37 UTC

1 09699U 74089DY  26257.77635703 -.00000029  00000-0  96500-4 0  9997
2 09699 101.6463   4.6541 0124308 149.6632   5.0719 12.29332702328483

Sigue THORAD DELTA 1 DEB en tiempo real con AllMySat

Download on the App Store